Scottsdale, AZ

5:42 AM MST on August 27, 2016 (GMT -0700)
Scottsdale

Weather History for KSDL - March, 2013

Change the Weather History Date:

Wednesday, March 27, 2013

  Actual Average Record
Temperature  
Mean Temperature 70 °F -  
Max Temperature 82 °F 75 °F 91 °F (2015)
Min Temperature 59 °F 53 °F 45 °F (2009)
Cooling Degree Days 6    
Growing Degree Days 20 (Base 50)    
Moisture  
Dew Point 27 °F    
Average Humidity 22    
Maximum Humidity 38    
Minimum Humidity 9    
Precipitation  
Precipitation 0.00 in - - ()
Sea Level Pressure  
Sea Level Pressure 29.85 in    
Wind  
Wind Speed 2 mph (SSE)    
Max Wind Speed 9 mph    
Max Gust Speed -    
Visibility 10 miles    
Events      
Averages and records for this station are not official NWS values.
T = Trace of Precipitation, MM = Missing Value Source: NWS Daily Summary

Daily Weather History Graph

Daily Weather History Graph

Search for Another Location

Airport or City:

Trip Planner

Search our weather history database for the weather conditions in past years. The results will help you decide how hot, cold, wet, or windy it might be!

Date:

Astronomy

Mar. 27, 2013 Rise Set
Actual Time 6:21 AM MST 6:44 PM MST
Civil Twilight 5:56 AM MST 7:09 PM MST
Nautical Twilight 5:27 AM MST 7:38 PM MST
Astronomical Twilight 4:57 AM MST 8:08 PM MST
Moon 7:28 PM MST 6:17 AM MST
Length of Visible Light 13h 13m
Length of Day
12h 23m
Full, 100% of the Moon is Illuminated
Mar 27
Full
Apr 2
Last Quarter
Apr 10
New
Apr 18
First Quarter
Apr 25
Full

Hourly Weather History & Observations

Time (MST) Temp. Dew Point Humidity Pressure Visibility Wind Dir Wind Speed Gust Speed Precip Events Conditions
12:53 AM 64.9 °F 28.0 °F 25% 29.82 in 10.0 mi NE 3.5 mph - N/A   Clear
1:53 AM 64.0 °F 26.1 °F 24% 29.81 in 10.0 mi Calm Calm - N/A   Clear
2:53 AM 60.1 °F 30.9 °F 33% 29.81 in 10.0 mi Calm Calm - N/A   Clear
3:53 AM 60.1 °F 30.0 °F 32% 29.81 in 10.0 mi Calm Calm - N/A   Clear
4:53 AM 60.1 °F 30.9 °F 33% 29.81 in 10.0 mi Calm Calm - N/A   Clear
5:53 AM 59.0 °F 33.1 °F 38% 29.82 in 10.0 mi Calm Calm - N/A   Clear
6:53 AM 60.1 °F 33.1 °F 36% 29.85 in 10.0 mi Calm Calm - N/A   Clear
7:53 AM 64.0 °F 32.0 °F 30% 29.87 in 9.0 mi Calm Calm - N/A   Clear
8:53 AM 68.0 °F 34.0 °F 28% 29.88 in 10.0 mi Calm Calm - N/A   Clear
9:53 AM 73.9 °F 27.0 °F 18% 29.89 in 10.0 mi SSE 4.6 mph - N/A   Clear
10:53 AM 75.0 °F 23.0 °F 14% 29.90 in 10.0 mi SE 9.2 mph - N/A   Clear
11:53 AM 77.0 °F 21.9 °F 13% 29.89 in 10.0 mi SSE 8.1 mph - N/A   Clear
12:53 PM 80.1 °F 23.0 °F 12% 29.87 in 10.0 mi ESE 5.8 mph - N/A   Clear
1:53 PM 82.0 °F 19.9 °F 10% 29.85 in 10.0 mi Calm Calm - N/A   Clear
2:53 PM 82.9 °F 17.1 °F 9% 29.83 in 10.0 mi South 4.6 mph - N/A   Clear
3:53 PM 82.0 °F 19.9 °F 10% 29.83 in 10.0 mi West 5.8 mph - N/A   Clear
4:53 PM 81.0 °F 19.0 °F 10% 29.83 in 10.0 mi SW 5.8 mph - N/A   Clear
5:53 PM 80.1 °F 19.9 °F 11% 29.84 in 10.0 mi West 4.6 mph - N/A   Clear
6:53 PM 79.0 °F 21.9 °F 12% 29.85 in 10.0 mi Calm Calm - N/A   Clear
7:53 PM 75.9 °F 24.1 °F 15% 29.86 in 10.0 mi Calm Calm - N/A   Clear
8:53 PM 72.0 °F 28.0 °F 20% 29.87 in 10.0 mi Calm Calm - N/A   Clear
9:53 PM 69.1 °F 30.9 °F 24% 29.88 in 10.0 mi ENE 4.6 mph - N/A   Clear
10:53 PM 66.9 °F 30.9 °F 26% 29.89 in 10.0 mi Calm Calm - N/A   Clear
11:53 PM 64.0 °F 34.0 °F 33% 29.90 in 10.0 mi Calm Calm - N/A   Clear